User: anonymous   Login
Location: ??????
(38.1303°N, 24.0039°E)
Time: 06:42:30
(UTC+00:00)
Language:

Alouette 2 Rocket - Orbit

View from above orbital plane
View from above orbital plane
View from above satellite
View from above satellite

Ground track
Ground track

The orbit data is extracted from the following two-line orbital elements,

1  1807U 65098C   21298.31544076  .00000383  00000-0  12723-3 0  9998
2  1807  79.8402  33.6725 1350863 220.1196 129.2142 12.23907339465107
Epoch (UTC): 25 October 2021 07:34:14
Eccentricity: 0.1350863
inclination: 79.8402°
perigee height: 501 km
apogee height: 2650 km
right ascension of ascending node: 33.6725°
argument of perigee: 220.1196°
revolutions per day: 12.23907339
mean anomaly at epoch: 129.2142°
orbit number at epoch: 46510

The dashed part of the orbit path shows where the satellite is in the earth's shadow,  

DLR